{"data":{"norad_id":62183,"epoch":"2026-09-21T22:00:03.000096Z","epoch_age_seconds":55139,"freshness":"FRESH","line1":"1 62183U 24225W   26264.91670139  .00001390  00000+0  94587-4 0  9990","line2":"2 62183  70.0005  29.8137 0004757 291.6756 117.9258 15.08862600  5490","mean_motion":15.088626,"eccentricity":0.0004757,"inclination_deg":70.0005,"raan_deg":29.8137,"arg_perigee_deg":291.6756,"mean_anomaly_deg":117.9258,"bstar":9.4587e-5,"rev_number":549,"period_min":95.436125197881,"perigee_km":536.38350782712,"apogee_km":542.96511350809,"semimajor_km":6917.8113106676,"source":"CELESTRAK","updated_at":"2026-09-22T09:00:49.538300Z"}}